This is the latest recevied weather packets stored in our database for station/object F5LKO-13. If no packets are shown the sender has not sent any weather packets the latest 10 day(s).
| Time | Temp. | Humidity | Pressure | Rain* | Wind** | Luminosity | Snow |
|---|---|---|---|---|---|---|---|
| 1777548552 | 27.78° C | 99% | 1018 hPa | 0 mm | - | 99 W/m² | - |
| 1777548237 | 27.78° C | 99% | 1018 hPa | 0 mm | - | 67 W/m² | - |
| 1777547931 | 28.33° C | 99% | 1018 hPa | 0 mm | - | 22 W/m² | - |
| 1777547625 | 26.67° C | 99% | 1018 hPa | 0 mm | - | 95 W/m² | - |
| 1777547319 | 26.67° C | 99% | 1017.9 hPa | 0 mm | - | 95 W/m² | - |
| 1777547013 | 25.56° C | 99% | 1017.9 hPa | 0 mm | - | 6 W/m² | - |
| 1777546717 | 27.22° C | 99% | 1018 hPa | 0 mm | - | 7 W/m² | - |
| 1777546402 | 26.67° C | 99% | 1018 hPa | 0 mm | - | 12 W/m² | - |
| 1777546096 | 25.56° C | 99% | 1018.1 hPa | 0 mm | - | 98 W/m² | - |
| 1777545790 | 23.89° C | 99% | 1018 hPa | 0 mm | - | 91 W/m² | - |
| 1777545484 | 24.44° C | 99% | 1018 hPa | 0 mm | - | 15 W/m² | - |
| 1777545178 | 23.89° C | 99% | 1018 hPa | 0 mm | - | 12 W/m² | - |
| 1777544880 | 24.44° C | 99% | 1017.9 hPa | 0 mm | - | 44 W/m² | - |
| 1777544565 | 25.56° C | 99% | 1017.9 hPa | 0 mm | - | 7 W/m² | - |
| 1777544259 | 26.67° C | 99% | 1017.9 hPa | 0 mm | - | 7 W/m² | - |
| 1777543953 | 27.78° C | 99% | 1017.8 hPa | 0 mm | - | 11 W/m² | - |
| 1777543647 | 27.78° C | 99% | 1017.8 hPa | 0 mm | - | 12 W/m² | - |
| 1777543341 | 26.11° C | 99% | 1017.8 hPa | 0 mm | - | 87 W/m² | - |
| 1777543045 | 26.11° C | 99% | 1017.8 hPa | 0 mm | - | 83 W/m² | - |
| 1777542730 | 26.67° C | 99% | 1017.8 hPa | 0 mm | - | 6 W/m² | - |
| 1777542424 | 25.56° C | 99% | 1017.8 hPa | 0 mm | - | 84 W/m² | - |
| 1777542118 | 25° C | 99% | 1017.8 hPa | 0 mm | - | 66 W/m² | - |
| 1777541812 | 24.44° C | 99% | 1017.8 hPa | 0 mm | - | 72 W/m² | - |
| 1777541506 | 24.44° C | 99% | 1017.7 hPa | 0 mm | - | 68 W/m² | - |
| 1777541209 | 25.56° C | 99% | 1017.6 hPa | 0 mm | - | 4 W/m² | - |
* Rain latest hour (hover to see other rain measurements)
** Current wind speed in m/s (hover to see current wind gust speed)